Time,TemperatureF,DewpointF,PressureIn,WindDirection,WindDirectionDegrees,WindSpeedMPH,WindSpeedGustMPH,Humidity,HourlyPrecipIn,Conditions,Clouds,dailyrainin,SolarRadiationWatts/m^2,SoftwareType,DateUTC
2013-04-21 00:32:00,60.0,12.0,-100.00,SE,133,3.0,8.0,15,-99.99,,,0.00,1.000000,,2013-04-21 07:32:00,
2013-04-21 01:32:00,59.0,16.0,-100.00,NNE,30,4.0,6.0,18,0.00,,,0.00,1.000000,,2013-04-21 08:32:00,
2013-04-21 01:42:00,59.0,16.0,-100.00,NNE,30,4.0,6.0,18,0.00,,,0.00,1.000000,,2013-04-21 08:42:00,
2013-04-21 01:52:00,59.0,16.0,-100.00,NNE,30,4.0,6.0,18,0.00,,,0.00,1.000000,,2013-04-21 08:52:00,
2013-04-21 02:01:00,59.0,16.0,-100.00,NNE,30,4.0,6.0,18,0.00,,,0.00,1.000000,,2013-04-21 09:01:00,
2013-04-21 02:33:00,58.0,15.0,-100.00,NE,49,4.0,6.0,18,0.00,,,0.00,1.000000,,2013-04-21 09:33:00,
2013-04-21 02:43:00,58.0,15.0,-100.00,NE,49,4.0,6.0,18,0.00,,,0.00,1.000000,,2013-04-21 09:43:00,
2013-04-21 02:53:00,58.0,15.0,-100.00,NE,49,4.0,6.0,18,0.00,,,0.00,1.000000,,2013-04-21 09:53:00,
2013-04-21 03:02:00,58.0,15.0,-100.00,NE,49,4.0,6.0,18,0.00,,,0.00,1.000000,,2013-04-21 10:02:00,
2013-04-21 03:33:00,57.0,13.0,-100.00,SSE,166,2.0,7.0,17,0.00,,,0.00,0.000000,,2013-04-21 10:33:00,
2013-04-21 03:42:00,57.0,13.0,-100.00,SSE,166,2.0,7.0,17,0.00,,,0.00,0.000000,,2013-04-21 10:42:00,
2013-04-21 03:52:00,57.0,13.0,-100.00,SSE,166,2.0,7.0,17,0.00,,,0.00,0.000000,,2013-04-21 10:52:00,
2013-04-21 04:02:00,57.0,13.0,-100.00,SSE,166,2.0,7.0,17,0.00,,,0.00,0.000000,,2013-04-21 11:02:00,
2013-04-21 04:34:00,58.0,15.0,-100.00,NNE,29,4.0,6.0,18,0.00,,,-99.99,1.000000,,2013-04-21 11:34:00,
2013-04-21 04:42:00,58.0,15.0,-100.00,NNE,29,4.0,6.0,18,0.00,,,-99.99,1.000000,,2013-04-21 11:42:00,
2013-04-21 04:52:00,58.0,15.0,-100.00,NNE,29,4.0,6.0,18,0.00,,,-99.99,1.000000,,2013-04-21 11:52:00,
2013-04-21 05:02:00,58.0,15.0,-100.00,NNE,29,4.0,6.0,18,0.00,,,-99.99,1.000000,,2013-04-21 12:02:00,
2013-04-21 05:32:00,56.0,13.0,-100.00,South,183,1.0,6.0,18,0.00,,,0.00,1.000000,,2013-04-21 12:32:00,
2013-04-21 06:01:00,56.0,13.0,-100.00,South,183,1.0,6.0,18,0.00,,,0.00,1.000000,,2013-04-21 13:01:00,
2013-04-21 06:32:00,58.0,18.0,-100.00,NNE,27,6.0,8.0,21,0.00,,,0.00,4.000000,,2013-04-21 13:32:00,
2013-04-21 07:32:00,61.0,20.0,-100.00,SE,146,2.0,7.0,20,0.00,,,0.00,121.000000,,2013-04-21 14:32:00,
2013-04-21 07:42:00,61.0,20.0,-100.00,SE,146,2.0,7.0,20,0.00,,,0.00,121.000000,,2013-04-21 14:42:00,
2013-04-21 07:52:00,61.0,20.0,-100.00,SE,146,2.0,7.0,20,0.00,,,0.00,121.000000,,2013-04-21 14:52:00,
2013-04-21 08:02:00,61.0,20.0,-100.00,SE,146,2.0,7.0,20,0.00,,,0.00,121.000000,,2013-04-21 15:02:00,
2013-04-21 08:33:00,71.0,24.0,-100.00,SW,232,2.0,4.0,17,0.00,,,0.00,337.000000,,2013-04-21 15:33:00,
2013-04-21 08:43:00,71.0,24.0,-100.00,SW,232,2.0,4.0,17,0.00,,,0.00,337.000000,,2013-04-21 15:43:00,
2013-04-21 08:53:00,71.0,24.0,-100.00,SW,232,2.0,4.0,17,0.00,,,0.00,337.000000,,2013-04-21 15:53:00,
2013-04-21 09:03:00,71.0,24.0,-100.00,SW,232,2.0,4.0,17,0.00,,,0.00,337.000000,,2013-04-21 16:03:00,
2013-04-21 09:33:00,78.0,21.0,-100.00,North,354,3.0,5.0,12,0.00,,,0.00,549.000000,,2013-04-21 16:33:00,
2013-04-21 09:42:00,78.0,21.0,-100.00,North,354,3.0,5.0,12,0.00,,,0.00,549.000000,,2013-04-21 16:42:00,
2013-04-21 09:52:00,78.0,21.0,-100.00,North,354,3.0,5.0,12,0.00,,,0.00,549.000000,,2013-04-21 16:52:00,
2013-04-21 10:02:00,78.0,21.0,-100.00,North,354,3.0,5.0,12,0.00,,,0.00,549.000000,,2013-04-21 17:02:00,
2013-04-21 10:32:00,81.0,17.0,-100.00,WSW,252,5.0,10.0,9,0.00,,,0.00,739.000000,,2013-04-21 17:32:00,
2013-04-21 10:42:00,81.0,17.0,-100.00,WSW,252,5.0,10.0,9,0.00,,,0.00,739.000000,,2013-04-21 17:42:00,
2013-04-21 10:52:00,81.0,17.0,-100.00,WSW,252,5.0,10.0,9,0.00,,,0.00,739.000000,,2013-04-21 17:52:00,
2013-04-21 11:02:00,81.0,17.0,-100.00,WSW,252,5.0,10.0,9,0.00,,,0.00,739.000000,,2013-04-21 18:02:00,
2013-04-21 11:33:00,84.0,13.0,-100.00,SSW,198,5.0,10.0,7,0.00,,,0.00,885.000000,,2013-04-21 18:33:00,
2013-04-21 11:42:00,84.0,13.0,-100.00,SSW,198,5.0,10.0,7,0.00,,,0.00,885.000000,,2013-04-21 18:42:00,
2013-04-21 11:52:00,84.0,13.0,-100.00,SSW,198,5.0,10.0,7,0.00,,,0.00,885.000000,,2013-04-21 18:52:00,
2013-04-21 12:02:00,84.0,13.0,-100.00,SSW,198,5.0,10.0,7,0.00,,,0.00,885.000000,,2013-04-21 19:02:00,
2013-04-21 12:32:00,87.0,16.0,-100.00,WNW,288,6.0,14.0,7,0.00,,,0.00,967.000000,,2013-04-21 19:32:00,
2013-04-21 12:43:00,87.0,16.0,-100.00,WNW,288,6.0,14.0,7,0.00,,,0.00,967.000000,,2013-04-21 19:43:00,
2013-04-21 12:52:00,87.0,16.0,-100.00,WNW,288,6.0,14.0,7,0.00,,,0.00,967.000000,,2013-04-21 19:52:00,
2013-04-21 13:01:00,87.0,16.0,-100.00,WNW,288,6.0,14.0,7,0.00,,,0.00,967.000000,,2013-04-21 20:01:00,
2013-04-21 13:32:00,88.0,13.0,-100.00,West,272,8.0,15.0,6,0.00,,,0.00,986.000000,,2013-04-21 20:32:00,
2013-04-21 13:42:00,88.0,13.0,-100.00,West,272,8.0,15.0,6,0.00,,,0.00,986.000000,,2013-04-21 20:42:00,
2013-04-21 13:52:00,88.0,13.0,-100.00,West,272,8.0,15.0,6,0.00,,,0.00,986.000000,,2013-04-21 20:52:00,
2013-04-21 14:02:00,88.0,13.0,-100.00,West,272,8.0,15.0,6,0.00,,,0.00,986.000000,,2013-04-21 21:02:00,
2013-04-21 14:33:00,89.0,9.0,-100.00,WNW,285,9.0,17.0,5,0.00,,,0.00,944.000000,,2013-04-21 21:33:00,
2013-04-21 14:43:00,89.0,9.0,-100.00,WNW,285,9.0,17.0,5,0.00,,,0.00,944.000000,,2013-04-21 21:43:00,
2013-04-21 14:53:00,89.0,9.0,-100.00,WNW,285,9.0,17.0,5,0.00,,,0.00,944.000000,,2013-04-21 21:53:00,
2013-04-21 15:02:00,89.0,9.0,-100.00,WNW,285,9.0,17.0,5,0.00,,,0.00,944.000000,,2013-04-21 22:02:00,
2013-04-21 15:33:00,89.0,9.0,-100.00,West,271,10.0,17.0,5,0.00,,,0.00,837.000000,,2013-04-21 22:33:00,
2013-04-21 15:43:00,89.0,9.0,-100.00,West,271,10.0,17.0,5,0.00,,,0.00,837.000000,,2013-04-21 22:43:00,
2013-04-21 15:52:00,89.0,9.0,-100.00,West,271,10.0,17.0,5,0.00,,,0.00,837.000000,,2013-04-21 22:52:00,
2013-04-21 16:02:00,89.0,9.0,-100.00,West,271,10.0,17.0,5,0.00,,,0.00,837.000000,,2013-04-21 23:02:00,
2013-04-21 16:32:00,89.0,9.0,-100.00,West,262,9.0,16.0,5,0.00,,,0.00,673.000000,,2013-04-21 23:32:00,
2013-04-21 16:43:00,89.0,9.0,-100.00,West,262,9.0,16.0,5,0.00,,,0.00,673.000000,,2013-04-21 23:43:00,
2013-04-21 16:52:00,89.0,9.0,-100.00,West,262,9.0,16.0,5,0.00,,,0.00,673.000000,,2013-04-21 23:52:00,
2013-04-21 17:01:00,89.0,9.0,-100.00,West,262,9.0,16.0,5,0.00,,,0.00,673.000000,,2013-04-22 00:01:00,
2013-04-21 17:32:00,88.0,9.0,-100.00,WNW,287,8.0,14.0,5,0.00,,,-99.99,468.000000,,2013-04-22 00:32:00,
2013-04-21 17:42:00,88.0,9.0,-100.00,WNW,287,8.0,14.0,5,0.00,,,-99.99,468.000000,,2013-04-22 00:42:00,
2013-04-21 17:52:00,88.0,9.0,-100.00,WNW,287,8.0,14.0,5,0.00,,,-99.99,468.000000,,2013-04-22 00:52:00,
2013-04-21 18:01:00,88.0,9.0,-100.00,WNW,287,8.0,14.0,5,0.00,,,-99.99,468.000000,,2013-04-22 01:01:00,
2013-04-21 18:32:00,87.0,12.0,-100.00,WNW,292,5.0,14.0,6,0.00,,,0.00,246.000000,,2013-04-22 01:32:00,
2013-04-21 18:42:00,87.0,12.0,-100.00,WNW,292,5.0,14.0,6,0.00,,,0.00,246.000000,,2013-04-22 01:42:00,
2013-04-21 18:52:00,87.0,12.0,-100.00,WNW,292,5.0,14.0,6,0.00,,,0.00,246.000000,,2013-04-22 01:52:00,
2013-04-21 19:01:00,87.0,12.0,-100.00,WNW,292,5.0,14.0,6,0.00,,,0.00,246.000000,,2013-04-22 02:01:00,
2013-04-21 19:32:00,80.0,10.0,-100.00,North,10,5.0,11.0,7,0.00,,,0.00,51.000000,,2013-04-22 02:32:00,
2013-04-21 19:42:00,80.0,10.0,-100.00,North,10,5.0,11.0,7,0.00,,,0.00,51.000000,,2013-04-22 02:42:00,
2013-04-21 19:52:00,80.0,10.0,-100.00,North,10,5.0,11.0,7,0.00,,,0.00,51.000000,,2013-04-22 02:52:00,
2013-04-21 20:02:00,80.0,10.0,-100.00,North,10,5.0,11.0,7,0.00,,,0.00,51.000000,,2013-04-22 03:02:00,
2013-04-21 20:33:00,76.0,10.0,-100.00,North,8,3.0,10.0,8,0.00,,,0.00,1.000000,,2013-04-22 03:33:00,
2013-04-21 21:33:00,71.0,12.0,-100.00,SE,128,2.0,5.0,10,0.00,,,0.00,1.000000,,2013-04-22 04:33:00,
2013-04-21 22:33:00,69.0,12.0,-100.00,NE,36,3.0,6.0,11,0.00,,,0.00,1.000000,,2013-04-22 05:33:00,
2013-04-21 23:32:00,64.0,12.0,-100.00,NE,47,3.0,7.0,13,0.00,,,0.00,1.000000,,2013-04-22 06:32:00,
2013-04-21 23:42:00,64.0,12.0,-100.00,NE,47,3.0,7.0,13,0.00,,,0.00,1.000000,,2013-04-22 06:42:00,
2013-04-21 23:52:00,64.0,12.0,-100.00,NE,47,3.0,7.0,13,0.00,,,0.00,1.000000,,2013-04-22 06:52:00,